,,,PA_Meas_PMT16A,,PR_Meas_QMR101_102,,RH_Meas_QMH101,,SR_Meas_QMS101,,TA_Meas_QMH101,,GenWind,,GenWind,
date,time,status,PA,status,PR,status,RH,status,SR,status,TA,status,DirAvg,status,SpdAvg,
2011-07-16, 00:00:04,VALID,1000.2,VALID,0,VALID,88.4044,VALID,0,VALID,23.0556,VALID,341,VALID,0.755469,
2011-07-16, 00:01:04,VALID,1000.2,VALID,0,VALID,88.0458,VALID,0,VALID,23.1531,VALID,325,VALID,0.397656,
2011-07-16, 00:02:04,VALID,1000.15,VALID,0,VALID,87.6414,VALID,0,VALID,23.2117,VALID,256,VALID,0.683594,
2011-07-16, 00:03:04,VALID,1000.11,VALID,0,VALID,87.3668,VALID,0,VALID,23.2507,VALID,256,VALID,0.272656,
2011-07-16, 00:04:04,VALID,1000.1,VALID,0,VALID,86.9624,VALID,0,VALID,23.2312,VALID,133,VALID,0.484375,
2011-07-16, 00:05:04,VALID,1000.05,VALID,0,VALID,86.8937,VALID,0,VALID,23.2117,VALID,133,VALID,0.456641,
2011-07-16, 00:06:04,VALID,1000.07,VALID,0,VALID,86.8098,VALID,0,VALID,23.1921,VALID,133,VALID,0.153906,
2011-07-16, 00:07:04,VALID,1000.07,VALID,0,VALID,86.7411,VALID,0,VALID,23.1939,VALID,133,VALID,0,
2011-07-16, 00:08:04,VALID,1000.06,VALID,0,VALID,86.7183,VALID,0,VALID,23.1744,VALID,133,VALID,0,
2011-07-16, 00:09:04,VALID,1000.03,VALID,0,VALID,86.8022,VALID,0,VALID,23.1354,VALID,133,VALID,0.218359,
2011-07-16, 00:10:04,VALID,1000.03,VALID,0,VALID,86.9929,VALID,0,VALID,23.1159,VALID,133,VALID,0.573828,
2011-07-16, 00:11:04,VALID,999.989,VALID,0,VALID,87.2829,VALID,0,VALID,23.1159,VALID,133,VALID,0.550781,
2011-07-16, 00:12:04,VALID,999.972,VALID,0,VALID,87.382,VALID,0,VALID,23.1336,VALID,133,VALID,0.510938,
2011-07-16, 00:13:04,VALID,999.942,VALID,0,VALID,87.2905,VALID,0,VALID,23.1939,VALID,133,VALID,0.217969,
2011-07-16, 00:14:04,VALID,999.953,VALID,0,VALID,87.054,VALID,0,VALID,23.1939,VALID,133,VALID,0.434766,
2011-07-16, 00:15:04,VALID,999.994,VALID,0,VALID,87.0006,VALID,0,VALID,23.1939,VALID,133,VALID,0.199219,
2011-07-16, 00:16:04,VALID,999.994,VALID,0,VALID,86.8861,VALID,0,VALID,23.1549,VALID,133,VALID,0,
2011-07-16, 00:17:04,VALID,999.964,VALID,0,VALID,86.9014,VALID,0,VALID,23.1354,VALID,133,VALID,0.283594,
2011-07-16, 00:18:04,VALID,1000.03,VALID,0,VALID,86.8403,VALID,0,VALID,23.0556,VALID,133,VALID,0.319141,
2011-07-16, 00:19:04,VALID,999.981,VALID,0,VALID,86.7946,VALID,0,VALID,23.0166,VALID,45,VALID,0.719531,
2011-07-16, 00:20:04,VALID,999.987,VALID,0,VALID,87.4354,VALID,0,VALID,22.9793,VALID,319,VALID,0.820313,
2011-07-16, 00:21:04,VALID,999.979,VALID,0,VALID,87.8398,VALID,0,VALID,22.9581,VALID,288,VALID,0.741016,
2011-07-16, 00:22:04,VALID,999.971,VALID,0,VALID,88.084,VALID,0.112286,VALID,22.919,VALID,297,VALID,0.810156,
2011-07-16, 00:23:04,VALID,1000.02,VALID,0,VALID,87.8932,VALID,0,VALID,22.88,VALID,342,VALID,0.644141,
2011-07-16, 00:24:04,VALID,1000.02,VALID,0,VALID,87.7025,VALID,0,VALID,22.802,VALID,342,VALID,0.309375,
2011-07-16, 00:25:04,VALID,1000.06,VALID,0,VALID,87.5346,VALID,0,VALID,22.7045,VALID,90,VALID,1.08281,
2011-07-16, 00:26:04,VALID,999.966,VALID,0,VALID,88.1679,VALID,0,VALID,22.6477,VALID,63,VALID,0.951563,
2011-07-16, 00:27:04,VALID,1000.01,VALID,0,VALID,88.4807,VALID,0,VALID,22.6087,VALID,43,VALID,0.95,
2011-07-16, 00:28:04,VALID,1000.05,VALID,0,VALID,88.4883,VALID,0,VALID,22.5501,VALID,43,VALID,0.357422,
2011-07-16, 00:29:04,VALID,999.961,VALID,0,VALID,88.5875,VALID,0,VALID,22.4899,VALID,43,VALID,0.433984,
2011-07-16, 00:30:04,VALID,999.982,VALID,0,VALID,89.03,VALID,0,VALID,22.4899,VALID,43,VALID,0.607422,
2011-07-16, 00:31:04,VALID,1000.01,VALID,0,VALID,89.4802,VALID,0,VALID,22.5306,VALID,43,VALID,0.275391,
2011-07-16, 00:32:04,VALID,999.978,VALID,0,VALID,89.5565,VALID,0,VALID,22.5094,VALID,43,VALID,0.586719,
2011-07-16, 00:33:04,VALID,999.942,VALID,0,VALID,89.8922,VALID,0,VALID,22.5501,VALID,43,VALID,0.880859,
2011-07-16, 00:34:04,VALID,999.938,VALID,0,VALID,89.9532,VALID,0,VALID,22.5501,VALID,34,VALID,0.997656,
2011-07-16, 00:35:04,VALID,999.879,VALID,0,VALID,89.9456,VALID,0,VALID,22.5484,VALID,29,VALID,1.45391,
2011-07-16, 00:36:04,VALID,999.869,VALID,0,VALID,89.6786,VALID,0,VALID,22.6087,VALID,20,VALID,1.48281,
2011-07-16, 00:37:04,VALID,999.811,VALID,0,VALID,89.1216,VALID,0.112286,VALID,22.5484,VALID,10,VALID,1.76211,
2011-07-16, 00:38:04,VALID,999.829,VALID,0,VALID,89.0834,VALID,0,VALID,22.5289,VALID,10,VALID,1.26953,
2011-07-16, 00:39:04,VALID,999.816,VALID,0,VALID,89.2894,VALID,0.112286,VALID,22.5696,VALID,10,VALID,1.02461,
2011-07-16, 00:40:04,VALID,999.791,VALID,0,VALID,89.3123,VALID,0,VALID,22.5679,VALID,10,VALID,0.775781,
2011-07-16, 00:41:04,VALID,999.789,VALID,0,VALID,89.1445,VALID,0,VALID,22.5874,VALID,7,VALID,0.981641,
2011-07-16, 00:42:04,VALID,999.765,VALID,0,VALID,88.9003,VALID,0,VALID,22.5892,VALID,10,VALID,0.728125,
2011-07-16, 00:43:04,VALID,999.772,VALID,0,VALID,89.0224,VALID,0,VALID,22.5696,VALID,10,VALID,0.56875,
2011-07-16, 00:44:04,VALID,999.726,VALID,0,VALID,89.0071,VALID,0,VALID,22.5289,VALID,10,VALID,0.711719,
2011-07-16, 00:45:04,VALID,999.71,VALID,0,VALID,89.1292,VALID,0,VALID,22.5696,VALID,10,VALID,0.751172,
2011-07-16, 00:46:04,VALID,999.689,VALID,0,VALID,89.1445,VALID,0,VALID,22.5484,VALID,9,VALID,0.526953,
2011-07-16, 00:47:04,VALID,999.64,VALID,0,VALID,88.9156,VALID,0,VALID,22.5289,VALID,330,VALID,0.715234,
2011-07-16, 00:48:04,VALID,999.638,VALID,0,VALID,88.9003,VALID,0,VALID,22.5519,VALID,330,VALID,0.635938,
2011-07-16, 00:49:04,VALID,999.649,VALID,0,VALID,89.0911,VALID,0,VALID,22.5306,VALID,330,VALID,0.41875,
2011-07-16, 00:50:04,VALID,999.651,VALID,0,VALID,89.3505,VALID,0,VALID,22.5714,VALID,330,VALID,0.272656,
2011-07-16, 00:51:04,VALID,999.654,VALID,0,VALID,89.3505,VALID,0,VALID,22.5519,VALID,330,VALID,0,
2011-07-16, 00:52:04,VALID,999.641,VALID,0,VALID,89.4497,VALID,0,VALID,22.5306,VALID,330,VALID,0,
2011-07-16, 00:53:04,VALID,999.663,VALID,0,VALID,89.526,VALID,0,VALID,22.5323,VALID,330,VALID,0.530469,
2011-07-16, 00:54:04,VALID,999.619,VALID,0,VALID,89.3276,VALID,0,VALID,22.4738,VALID,330,VALID,0.541016,
2011-07-16, 00:55:04,VALID,999.592,VALID,0,VALID,89.6786,VALID,0,VALID,22.4526,VALID,16,VALID,0.850391,
2011-07-16, 00:56:04,VALID,999.581,VALID,0,VALID,89.7167,VALID,0,VALID,22.4721,VALID,46,VALID,1.07773,
2011-07-16, 00:57:04,VALID,999.544,VALID,0,VALID,89.5641,VALID,0,VALID,22.5128,VALID,46,VALID,0.68125,
2011-07-16, 00:58:04,VALID,999.575,VALID,0,VALID,89.1903,VALID,0,VALID,22.4933,VALID,46,VALID,0.199609,
2011-07-16, 00:59:04,VALID,999.533,VALID,0,VALID,89.381,VALID,0,VALID,22.5111,VALID,46,VALID,0.554297,
2011-07-16, 01:00:04,VALID,999.536,VALID,0,VALID,89.3352,VALID,0,VALID,22.5306,VALID,46,VALID,0.247656,
2011-07-16, 01:01:04,VALID,999.509,VALID,0,VALID,89.3047,VALID,0,VALID,22.5519,VALID,46,VALID,0,
2011-07-16, 01:02:04,VALID,999.513,VALID,0,VALID,89.2894,VALID,0,VALID,22.5306,VALID,46,VALID,0.0292969,
2011-07-16, 01:03:04,VALID,999.489,VALID,0,VALID,89.2437,VALID,0,VALID,22.5323,VALID,46,VALID,0,
2011-07-16, 01:04:04,VALID,999.435,VALID,0,VALID,89.1979,VALID,0,VALID,22.4916,VALID,46,VALID,0,
2011-07-16, 01:05:04,VALID,999.42,VALID,0,VALID,89.3123,VALID,0,VALID,22.4916,VALID,46,VALID,0,
2011-07-16, 01:06:04,VALID,999.395,VALID,0,VALID,89.3657,VALID,0,VALID,22.4916,VALID,46,VALID,0,
2011-07-16, 01:07:04,VALID,999.364,VALID,0,VALID,89.4497,VALID,0,VALID,22.4933,VALID,46,VALID,0,
2011-07-16, 01:08:04,VALID,999.391,VALID,0,VALID,89.4115,VALID,0,VALID,22.4738,VALID,46,VALID,0.533594,
2011-07-16, 01:09:04,VALID,999.424,VALID,0,VALID,89.5031,VALID,0,VALID,22.4331,VALID,105,VALID,1.50156,
2011-07-16, 01:10:04,VALID,999.424,VALID,0,VALID,89.5489,VALID,0,VALID,22.4738,VALID,111,VALID,1.68516,
2011-07-16, 01:11:04,VALID,999.401,VALID,0,VALID,89.9914,VALID,0,VALID,22.5128,VALID,112,VALID,0.93125,
2011-07-16, 01:12:04,VALID,999.417,VALID,0,VALID,90.2126,VALID,0,VALID,22.4916,VALID,127,VALID,0.98125,
2011-07-16, 01:13:04,VALID,999.39,VALID,0,VALID,90.3042,VALID,0,VALID,22.5128,VALID,128,VALID,0.394531,
2011-07-16, 01:14:04,VALID,999.425,VALID,0,VALID,90.2889,VALID,0,VALID,22.4933,VALID,128,VALID,0.274219,
2011-07-16, 01:15:04,VALID,999.4,VALID,0,VALID,90.1897,VALID,0,VALID,22.4738,VALID,126,VALID,0.149609,
2011-07-16, 01:16:04,VALID,999.412,VALID,0,VALID,90.1668,VALID,0,VALID,22.4543,VALID,126,VALID,0.0675781,
2011-07-16, 01:17:04,VALID,999.447,VALID,0,VALID,90.1745,VALID,0,VALID,22.3941,VALID,126,VALID,0.390625,
2011-07-16, 01:18:04,VALID,999.443,VALID,0,VALID,90.2813,VALID,0,VALID,22.3746,VALID,133,VALID,0.392578,
2011-07-16, 01:19:04,VALID,999.443,VALID,0,VALID,90.3728,VALID,0,VALID,22.4153,VALID,133,VALID,0.333984,
2011-07-16, 01:20:04,VALID,999.413,VALID,0,VALID,90.5026,VALID,0,VALID,22.4136,VALID,133,VALID,0.157031,
2011-07-16, 01:21:04,VALID,999.366,VALID,0,VALID,90.5178,VALID,0,VALID,22.4348,VALID,335,VALID,1.41484,
2011-07-16, 01:22:04,VALID,999.363,VALID,0,VALID,90.5254,VALID,0,VALID,22.4543,VALID,340,VALID,1.52266,
2011-07-16, 01:23:04,VALID,999.429,VALID,0,VALID,90.5788,VALID,0,VALID,22.4331,VALID,353,VALID,1.04297,
2011-07-16, 01:24:04,VALID,999.46,VALID,0,VALID,90.4568,VALID,0,VALID,22.4738,VALID,353,VALID,0.204688,
2011-07-16, 01:25:04,VALID,999.444,VALID,0,VALID,90.266,VALID,0,VALID,22.4348,VALID,254,VALID,0.828125,
2011-07-16, 01:26:04,VALID,999.432,VALID,0,VALID,90.3271,VALID,0,VALID,22.4543,VALID,258,VALID,0.445703,
2011-07-16, 01:27:04,VALID,999.413,VALID,0,VALID,90.4339,VALID,0,VALID,22.4933,VALID,258,VALID,0.349609,
2011-07-16, 01:28:04,VALID,999.39,VALID,0,VALID,90.472,VALID,0,VALID,22.5519,VALID,258,VALID,0.584766,
2011-07-16, 01:29:04,VALID,999.393,VALID,0,VALID,90.2889,VALID,0,VALID,22.5696,VALID,258,VALID,0.628516,
2011-07-16, 01:30:04,VALID,999.422,VALID,0,VALID,89.732,VALID,0,VALID,22.5501,VALID,258,VALID,0.255469,
2011-07-16, 01:31:04,VALID,999.415,VALID,0,VALID,89.2818,VALID,0,VALID,22.4721,VALID,258,VALID,0.447656,
2011-07-16, 01:32:04,VALID,999.409,VALID,0,VALID,89.4726,VALID,0,VALID,22.4331,VALID,258,VALID,0.581641,
2011-07-16, 01:33:04,VALID,999.421,VALID,0,VALID,89.8311,VALID,0,VALID,22.4526,VALID,258,VALID,0.480859,
2011-07-16, 01:34:04,VALID,999.405,VALID,0,VALID,90.0371,VALID,0,VALID,22.4721,VALID,63,VALID,0.817187,
2011-07-16, 01:35:04,VALID,999.392,VALID,0,VALID,90.0066,VALID,0,VALID,22.5111,VALID,63,VALID,0.817578,
2011-07-16, 01:36:04,VALID,999.381,VALID,0,VALID,89.8006,VALID,0,VALID,22.5696,VALID,63,VALID,0.635938,
2011-07-16, 01:37:04,VALID,999.381,VALID,0,VALID,89.5336,VALID,0,VALID,22.6104,VALID,63,VALID,0.474219,
2011-07-16, 01:38:04,VALID,999.398,VALID,0,VALID,89.1445,VALID,0,VALID,22.6494,VALID,63,VALID,0.202344,
2011-07-16, 01:39:04,VALID,999.393,VALID,0,VALID,88.8393,VALID,0,VALID,22.6087,VALID,63,VALID,0.251172,
2011-07-16, 01:40:04,VALID,999.423,VALID,0,VALID,88.8011,VALID,0,VALID,22.6087,VALID,63,VALID,0.232422,
2011-07-16, 01:41:04,VALID,999.406,VALID,0,VALID,88.8088,VALID,0,VALID,22.6087,VALID,63,VALID,0,
2011-07-16, 01:42:04,VALID,999.39,VALID,0,VALID,88.8851,VALID,0,VALID,22.5892,VALID,63,VALID,0.09375,
2011-07-16, 01:43:04,VALID,999.407,VALID,0,VALID,88.9614,VALID,0,VALID,22.5892,VALID,63,VALID,0.04375,
2011-07-16, 01:44:04,VALID,999.383,VALID,0,VALID,88.9843,VALID,0,VALID,22.5892,VALID,63,VALID,0.191797,
2011-07-16, 01:45:04,VALID,999.372,VALID,0,VALID,89.0224,VALID,0,VALID,22.6104,VALID,63,VALID,0.0914062,
2011-07-16, 01:46:04,VALID,999.336,VALID,0,VALID,88.9537,VALID,0,VALID,22.5501,VALID,63,VALID,0.517187,
2011-07-16, 01:47:04,VALID,999.336,VALID,0,VALID,89.2208,VALID,0,VALID,22.5714,VALID,353,VALID,0.714453,
2011-07-16, 01:48:04,VALID,999.384,VALID,0,VALID,89.1597,VALID,0,VALID,22.5111,VALID,353,VALID,0.301953,
2011-07-16, 01:49:04,VALID,999.368,VALID,0,VALID,89.0377,VALID,0,VALID,22.4331,VALID,353,VALID,0.634766,
2011-07-16, 01:50:04,VALID,999.294,VALID,0,VALID,89.4573,VALID,0,VALID,22.4153,VALID,24,VALID,1.25195,
2011-07-16, 01:51:04,VALID,999.271,VALID,0,VALID,89.442,VALID,0,VALID,22.3356,VALID,12,VALID,1.12266,
2011-07-16, 01:52:04,VALID,999.277,VALID,0,VALID,89.5489,VALID,0,VALID,22.2771,VALID,12,VALID,0.691797,
2011-07-16, 01:53:04,VALID,999.235,VALID,0,VALID,89.6633,VALID,0,VALID,22.2592,VALID,346,VALID,0.630859,
2011-07-16, 01:54:04,VALID,999.209,VALID,0,VALID,89.8769,VALID,0,VALID,22.2397,VALID,346,VALID,0.585156,
2011-07-16, 01:55:04,VALID,999.202,VALID,0,VALID,90.0143,VALID,0,VALID,22.2007,VALID,346,VALID,0.776953,
2011-07-16, 01:56:04,VALID,999.212,VALID,0,VALID,90.205,VALID,0,VALID,22.199,VALID,346,VALID,0.205859,
2011-07-16, 01:57:04,VALID,999.136,VALID,0,VALID,90.1668,VALID,0,VALID,22.16,VALID,354,VALID,0.846484,
2011-07-16, 01:58:04,VALID,999.183,VALID,0,VALID,90.205,VALID,0,VALID,22.16,VALID,355,VALID,0.904297,
2011-07-16, 01:59:04,VALID,999.205,VALID,0,VALID,90.3423,VALID,0,VALID,22.199,VALID,277,VALID,0.587109,
2011-07-16, 02:00:04,VALID,999.121,VALID,0,VALID,90.6094,VALID,0,VALID,22.2983,VALID,337,VALID,1.15664,
2011-07-16, 02:01:04,VALID,999.135,VALID,0,VALID,90.4339,VALID,0,VALID,22.3568,VALID,355,VALID,1.42773,
2011-07-16, 02:02:04,VALID,999.111,VALID,0,VALID,90.4186,VALID,0,VALID,22.3746,VALID,351,VALID,1.54609,
2011-07-16, 02:03:04,VALID,999.147,VALID,0,VALID,90.2737,VALID,0,VALID,22.4738,VALID,35,VALID,1.06172,
2011-07-16, 02:04:04,VALID,999.165,VALID,0,VALID,89.8006,VALID,0,VALID,22.4738,VALID,30,VALID,1.17773,
2011-07-16, 02:05:04,VALID,999.159,VALID,0,VALID,89.587,VALID,0,VALID,22.4331,VALID,30,VALID,1.025,
2011-07-16, 02:06:04,VALID,999.162,VALID,0,VALID,89.442,VALID,0,VALID,22.4153,VALID,26,VALID,0.828906,
2011-07-16, 02:07:04,VALID,999.115,VALID,0,VALID,89.3734,VALID,0,VALID,22.3763,VALID,21,VALID,1.17227,
2011-07-16, 02:08:04,VALID,999.109,VALID,0,VALID,89.5412,VALID,0,VALID,22.3958,VALID,22,VALID,1.59687,
2011-07-16, 02:09:04,VALID,999.069,VALID,0,VALID,89.8006,VALID,0,VALID,22.4348,VALID,22,VALID,1.30703,
2011-07-16, 02:10:04,VALID,999.079,VALID,0,VALID,89.5565,VALID,0,VALID,22.4738,VALID,44,VALID,1.21563,
2011-07-16, 02:11:04,VALID,999.076,VALID,0,VALID,89.5031,VALID,0,VALID,22.5128,VALID,52,VALID,1.00898,
2011-07-16, 02:12:04,VALID,999.034,VALID,0,VALID,89.381,VALID,0,VALID,22.5111,VALID,52,VALID,0.878516,
2011-07-16, 02:13:04,VALID,999.039,VALID,0,VALID,89.236,VALID,0,VALID,22.5306,VALID,52,VALID,0.438672,
2011-07-16, 02:14:04,VALID,999.01,VALID,0,VALID,89.0377,VALID,0,VALID,22.5519,VALID,52,VALID,0.473828,
2011-07-16, 02:15:04,VALID,999.022,VALID,0,VALID,88.9919,VALID,0,VALID,22.5111,VALID,52,VALID,0.370703,
2011-07-16, 02:16:04,VALID,999.023,VALID,0,VALID,89.0377,VALID,0,VALID,22.4738,VALID,52,VALID,0.432422,
2011-07-16, 02:17:04,VALID,999.006,VALID,0,VALID,89.0148,VALID,0,VALID,22.4331,VALID,52,VALID,0.0910156,
2011-07-16, 02:18:04,VALID,999.048,VALID,0,VALID,88.9919,VALID,0,VALID,22.3746,VALID,52,VALID,0.0820313,
2011-07-16, 02:19:04,VALID,999.008,VALID,0,VALID,88.9995,VALID,0,VALID,22.3373,VALID,85,VALID,0.664453,
2011-07-16, 02:20:04,VALID,999.031,VALID,0,VALID,89.1903,VALID,0,VALID,22.2576,VALID,84,VALID,0.201953,
2011-07-16, 02:21:04,VALID,999.005,VALID,0,VALID,89.4954,VALID,0,VALID,22.2186,VALID,114,VALID,1.02969,
2011-07-16, 02:22:04,VALID,998.982,VALID,0,VALID,89.854,VALID,0,VALID,22.2202,VALID,114,VALID,0.630859,
2011-07-16, 02:23:04,VALID,998.975,VALID,0,VALID,90.144,VALID,0,VALID,22.2007,VALID,103,VALID,0.891406,
2011-07-16, 02:24:04,VALID,999.036,VALID,0,VALID,90.4644,VALID,0,VALID,22.199,VALID,88,VALID,0.488281,
2011-07-16, 02:25:04,VALID,999.014,VALID,0,VALID,90.4949,VALID,0,VALID,22.1795,VALID,111,VALID,0.347656,
2011-07-16, 02:26:04,VALID,998.984,VALID,0,VALID,90.4949,VALID,0,VALID,22.1812,VALID,111,VALID,0.166797,
2011-07-16, 02:27:04,VALID,999.008,VALID,0,VALID,90.5788,VALID,0,VALID,22.1617,VALID,92,VALID,0.658203,
2011-07-16, 02:28:04,VALID,998.993,VALID,0,VALID,90.8383,VALID,0,VALID,22.2186,VALID,80,VALID,0.668359,
2011-07-16, 02:29:04,VALID,998.981,VALID,0,VALID,90.9069,VALID,0,VALID,22.2788,VALID,80,VALID,0.208203,
2011-07-16, 02:30:04,VALID,998.988,VALID,0,VALID,90.7772,VALID,0,VALID,22.2788,VALID,80,VALID,0.0582031,
2011-07-16, 02:31:04,VALID,998.994,VALID,0,VALID,90.5865,VALID,0,VALID,22.2788,VALID,80,VALID,0.366406,
2011-07-16, 02:32:04,VALID,999.004,VALID,0,VALID,90.3805,VALID,0,VALID,22.2788,VALID,6,VALID,0.875,
2011-07-16, 02:33:04,VALID,999.014,VALID,0,VALID,90.1592,VALID,0,VALID,22.199,VALID,359,VALID,1.13867,
2011-07-16, 02:34:04,VALID,999.033,VALID,0,VALID,90.06,VALID,0,VALID,22.121,VALID,359,VALID,1.37148,
2011-07-16, 02:35:04,VALID,999.023,VALID,0,VALID,90.266,VALID,0,VALID,22.1015,VALID,5,VALID,1.37734,
2011-07-16, 02:36:04,VALID,999.007,VALID,0,VALID,90.35,VALID,0,VALID,22.0837,VALID,4,VALID,1.59219,
2011-07-16, 02:37:04,VALID,999.044,VALID,0,VALID,90.5026,VALID,0,VALID,22.0642,VALID,359,VALID,1.07305,
2011-07-16, 02:38:04,VALID,999.064,VALID,0,VALID,90.617,VALID,0,VALID,22.0252,VALID,356,VALID,0.578906,
2011-07-16, 02:39:04,VALID,999.036,VALID,0,VALID,90.8077,VALID,0,VALID,22.004,VALID,327,VALID,0.867578,
2011-07-16, 02:40:04,VALID,999.064,VALID,0,VALID,91.0137,VALID,0,VALID,22.0235,VALID,285,VALID,0.768359,
2011-07-16, 02:41:04,VALID,999.058,VALID,0,VALID,91.1968,VALID,0,VALID,22.0642,VALID,296,VALID,0.614453,
2011-07-16, 02:42:04,VALID,999.033,VALID,0,VALID,91.3037,VALID,0,VALID,22.0625,VALID,341,VALID,0.780859,
2011-07-16, 02:43:04,VALID,999.02,VALID,0,VALID,91.3494,VALID,0,VALID,22.1032,VALID,359,VALID,1.02617,
2011-07-16, 02:44:04,VALID,999.088,VALID,0,VALID,91.3494,VALID,0,VALID,22.1032,VALID,359,VALID,0.385156,
2011-07-16, 02:45:04,VALID,999.055,VALID,0,VALID,91.2808,VALID,0,VALID,22.1032,VALID,1,VALID,0.435156,
2011-07-16, 02:46:04,VALID,999.013,VALID,0,VALID,91.2503,VALID,0,VALID,22.1032,VALID,17,VALID,1.13867,
2011-07-16, 02:47:04,VALID,999.012,VALID,0,VALID,91.2808,VALID,0,VALID,22.1405,VALID,285,VALID,0.516016,
2011-07-16, 02:48:04,VALID,999.002,VALID,0,VALID,91.1282,VALID,0,VALID,22.1617,VALID,149,VALID,0.30625,
2011-07-16, 02:49:04,VALID,998.969,VALID,0,VALID,91.0366,VALID,0,VALID,22.2186,VALID,149,VALID,0.0617188,
2011-07-16, 02:50:04,VALID,998.966,VALID,0,VALID,90.9756,VALID,0,VALID,22.2576,VALID,35,VALID,0.573047,
2011-07-16, 02:51:04,VALID,998.927,VALID,0,VALID,90.7543,VALID,0,VALID,22.3178,VALID,35,VALID,0.682422,
2011-07-16, 02:52:04,VALID,998.917,VALID,0,VALID,90.5941,VALID,0,VALID,22.3373,VALID,35,VALID,0.843359,
2011-07-16, 02:53:04,VALID,998.902,VALID,0,VALID,90.3805,VALID,0,VALID,22.3356,VALID,35,VALID,0.752344,
2011-07-16, 02:54:04,VALID,998.897,VALID,0,VALID,90.2355,VALID,0,VALID,22.3178,VALID,35,VALID,0.628516,
2011-07-16, 02:55:04,VALID,998.887,VALID,0,VALID,90.2126,VALID,0,VALID,22.2576,VALID,35,VALID,0.537891,
2011-07-16, 02:56:04,VALID,998.924,VALID,0,VALID,90.2966,VALID,0,VALID,22.2983,VALID,35,VALID,0.539063,
2011-07-16, 02:57:04,VALID,998.917,VALID,0,VALID,90.3881,VALID,0,VALID,22.2983,VALID,74,VALID,1.03125,
2011-07-16, 02:58:04,VALID,998.898,VALID,0,VALID,90.205,VALID,0,VALID,22.2576,VALID,56,VALID,1.55156,
2011-07-16, 02:59:04,VALID,998.918,VALID,0,VALID,89.999,VALID,0,VALID,22.2381,VALID,48,VALID,0.660937,
2011-07-16, 03:00:04,VALID,998.888,VALID,0,VALID,89.7701,VALID,0,VALID,22.2592,VALID,48,VALID,0.553125,
2011-07-16, 03:01:04,VALID,998.888,VALID,0,VALID,89.6709,VALID,0,VALID,22.199,VALID,333,VALID,0.875781,
2011-07-16, 03:02:04,VALID,998.903,VALID,0,VALID,89.8006,VALID,0,VALID,22.2186,VALID,333,VALID,0.515234,
2011-07-16, 03:03:04,VALID,998.931,VALID,0,VALID,89.7854,VALID,0,VALID,22.2397,VALID,343,VALID,0.730859,
2011-07-16, 03:04:04,VALID,998.921,VALID,0,VALID,89.7167,VALID,0,VALID,22.2592,VALID,3,VALID,1.13633,
2011-07-16, 03:05:04,VALID,998.9,VALID,0,VALID,89.6328,VALID,0,VALID,22.2592,VALID,20,VALID,1.49531,
2011-07-16, 03:06:04,VALID,998.969,VALID,0,VALID,89.32,VALID,0,VALID,22.2007,VALID,27,VALID,1.3375,
2011-07-16, 03:07:04,VALID,999.037,VALID,0,VALID,89.2208,VALID,0,VALID,22.1015,VALID,55,VALID,1.9,
2011-07-16, 03:08:04,VALID,999.042,VALID,0,VALID,89.5565,VALID,0,VALID,22.1032,VALID,33,VALID,1.37344,
2011-07-16, 03:09:04,VALID,999.115,VALID,0,VALID,89.6786,VALID,0,VALID,22.0447,VALID,53,VALID,2.01836,
2011-07-16, 03:10:04,VALID,999.081,VALID,0,VALID,89.8464,VALID,0,VALID,22.0057,VALID,39,VALID,2.01367,
2011-07-16, 03:11:04,VALID,999.114,VALID,0,VALID,90.0524,VALID,0,VALID,21.9472,VALID,47,VALID,1.6668,
2011-07-16, 03:12:04,VALID,999.112,VALID,0,VALID,90.3118,VALID,0,VALID,21.9277,VALID,48,VALID,1.53203,
2011-07-16, 03:13:04,VALID,999.086,VALID,0,VALID,90.4873,VALID,0,VALID,21.926,VALID,40,VALID,1.44727,
2011-07-16, 03:14:04,VALID,999.162,VALID,0,VALID,90.5178,VALID,0,VALID,21.9065,VALID,45,VALID,0.774219,
2011-07-16, 03:15:04,VALID,999.119,VALID,0,VALID,90.4873,VALID,0,VALID,21.9082,VALID,45,VALID,0.283203,
2011-07-16, 03:16:04,VALID,999.109,VALID,0,VALID,90.5102,VALID,0,VALID,21.8675,VALID,45,VALID,0.616016,
2011-07-16, 03:17:04,VALID,999.099,VALID,0,VALID,90.6857,VALID,0,VALID,21.8675,VALID,45,VALID,0.825391,
2011-07-16, 03:18:04,VALID,999.093,VALID,0,VALID,90.8917,VALID,0,VALID,21.887,VALID,58,VALID,1.07461,
2011-07-16, 03:19:04,VALID,999.007,VALID,0,VALID,90.968,VALID,0,VALID,21.926,VALID,41,VALID,1.1668,
2011-07-16, 03:20:04,VALID,999.016,VALID,0,VALID,91.0061,VALID,0,VALID,21.9667,VALID,6,VALID,0.879297,
2011-07-16, 03:21:04,VALID,999.121,VALID,0,VALID,90.9146,VALID,0,VALID,21.9472,VALID,3,VALID,0.46875,
2011-07-16, 03:22:04,VALID,999.099,VALID,0,VALID,90.9146,VALID,0,VALID,21.9667,VALID,3,VALID,0.0960938,
2011-07-16, 03:23:04,VALID,999.073,VALID,0,VALID,90.9298,VALID,0,VALID,21.9667,VALID,3,VALID,0,
2011-07-16, 03:24:04,VALID,999.041,VALID,0,VALID,91.0366,VALID,0,VALID,21.9862,VALID,353,VALID,0.759375,
2011-07-16, 03:25:04,VALID,999.029,VALID,0,VALID,91.0595,VALID,0,VALID,22.0252,VALID,330,VALID,0.8,
2011-07-16, 03:26:04,VALID,999.08,VALID,0,VALID,90.9374,VALID,0,VALID,21.965,VALID,330,VALID,0.735937,
2011-07-16, 03:27:04,VALID,999.075,VALID,0,VALID,90.823,VALID,0,VALID,21.926,VALID,306,VALID,0.720703,
2011-07-16, 03:28:04,VALID,999.067,VALID,0,VALID,90.8993,VALID,0,VALID,21.9667,VALID,306,VALID,0.425391,
2011-07-16, 03:29:04,VALID,999.107,VALID,0,VALID,90.9603,VALID,0,VALID,21.9472,VALID,306,VALID,0.483203,
2011-07-16, 03:30:04,VALID,999.096,VALID,0,VALID,90.9832,VALID,0,VALID,21.9472,VALID,306,VALID,0.462109,
2011-07-16, 03:31:04,VALID,999.118,VALID,0,VALID,91.0214,VALID,0,VALID,21.9472,VALID,312,VALID,0.708594,
2011-07-16, 03:32:04,VALID,999.115,VALID,0,VALID,91.0671,VALID,0,VALID,21.9277,VALID,326,VALID,0.95,
2011-07-16, 03:33:04,VALID,999.112,VALID,0,VALID,91.0595,VALID,0,VALID,21.9277,VALID,326,VALID,0.826172,
2011-07-16, 03:34:04,VALID,999.138,VALID,0,VALID,90.9909,VALID,0,VALID,21.8887,VALID,308,VALID,0.839453,
2011-07-16, 03:35:04,VALID,999.121,VALID,0,VALID,91.09,VALID,0,VALID,21.8887,VALID,307,VALID,0.880469,
2011-07-16, 03:36:04,VALID,999.173,VALID,0,VALID,91.2503,VALID,0,VALID,21.9082,VALID,317,VALID,0.951563,
2011-07-16, 03:37:04,VALID,999.171,VALID,0,VALID,91.3571,VALID,0,VALID,21.9277,VALID,305,VALID,0.540234,
2011-07-16, 03:38:04,VALID,999.167,VALID,0,VALID,91.4257,VALID,0,VALID,21.9472,VALID,305,VALID,0.345703,
2011-07-16, 03:39:04,VALID,999.168,VALID,0,VALID,91.4868,VALID,0,VALID,21.9667,VALID,305,VALID,0.135937,
2011-07-16, 03:40:04,VALID,999.146,VALID,0,VALID,91.4181,VALID,0,VALID,21.9472,VALID,305,VALID,0.372266,
2011-07-16, 03:41:04,VALID,999.163,VALID,0,VALID,91.3037,VALID,0,VALID,21.887,VALID,305,VALID,0,
2011-07-16, 03:42:04,VALID,999.197,VALID,0,VALID,91.3571,VALID,0,VALID,21.9277,VALID,305,VALID,0.284375,
2011-07-16, 03:43:04,VALID,999.193,VALID,0,VALID,91.4715,VALID,0,VALID,21.9277,VALID,305,VALID,0.254297,
2011-07-16, 03:44:04,VALID,999.234,VALID,0,VALID,91.5631,VALID,0,VALID,21.926,VALID,305,VALID,0.235938,
2011-07-16, 03:45:04,VALID,999.238,VALID,0,VALID,91.4639,VALID,0,VALID,21.8675,VALID,66,VALID,0.645703,
2011-07-16, 03:46:04,VALID,999.18,VALID,0,VALID,91.5936,VALID,0,VALID,21.8675,VALID,41,VALID,0.908203,